STARLINK-1189 (45221 NORAD) Tracking and Keplerian Element Data

This shows tracking and keplerian element data for the satellite.

Feedback or suggestion? Click here.




ElementValue
Catalog45221
NameSTARLINK-1189
Epoch Orbit2240
Epoch Day190.25001157
Epoch Year2020
RAAN301.1737
Inclination52.9998
Eccentricity0.0001042
Argument of Perigee77.8017
Mean Anonmoly104.5091
Mean Motion15.05563032
Decay Rate0.0002913
L11 45221U 20012AV 20190.25001157 .00029130 00000-0 20111-2 0 9994
L22 45221 52.9998 301.1737 0001042 77.8017 104.5091 15.05563032 22405

Live tracking and technical data element details for STARLINK-1189 (NORAD 45221). STARLINK-1189 can be tracked NOW for your location showing map with azimuth and elevation plus other details from your city location.

Track the satellite on the map from your city or location and see movement details for azimuth, elevation, latitude, longitude, range, height, and movement on the map or in text.







IsCatalogInMostPopularTable: catalog: 45221, numindb: 26
Update: records affected: 1



GetName: 45221 STARLINK-1189

Hit Count: updated at: Thu, 09 Jul 2020 01:19:05 GMT